Погода в Холодногорском

Россия / Ставропольский край     44°57′25″N   42°06′04″E
темп.,
°C
ветер,
м/с
пор.,
м/с
влажн.,
%
обл.,
%
осадки,
мм/ч
давл.,
гПа
погр.,
м
15 апреля, чт
чт1500:00+6з119082 0.0 101810
03:00+6юз118840 0.0 101810
06:00+6ю118611 0.0 101810
09:00+12ююв00645 0.0 1018440
12:00+16сз344671 0.0 10171566
15:00+16сз3448100 0.0 10161696
18:00+14с2265100 0.0 101742
21:00+11св117140 0.0 101810
16 апреля, пт
пт1600:00+9юв117532 0.0 101810
03:00+8юв117926 0.0 101810
06:00+9юв2279100 0.0 101811
09:00+14юв246249 0.0 1018524
12:00+17вюв4551100 0.0 10171463
15:00+19юв4545100 0.1 10152362
18:00+10ссз5796100 14.4 1019421
21:00+9с1295100 14.4 1021234
17 апреля, сб
сб1700:00+9с1196100 0.0 102034
03:00+9сз3698100 1.2 1019389
06:00+8з51095100 4.9 1022614
09:00+8сз3493100 5.3 1023442
12:00+12зсз4565100 0.1 10221188
15:00+11сз3463100 0.1 10221039
18:00+10ююз1275100 0.1 1023235
21:00+9ююз2284100 0.1 102370
18 апреля, вс
вс1800:00+8юв118995 0.0 102214
03:00+8в1187100 0.0 102121
06:00+8вюв2390100 0.0 1021107
09:00+10юв3583100 0.1 1019303
12:00+10ююз1186100 0.1 1019205
15:00+11св2285100 0.2 1019246
18:00+10в0297100 1.1 102099
21:00+10в1198100 6.0 102119
19 апреля, пн
пн1900:00+9вюв2297100 0.3 102145
03:00+8в2398100 0.3 102163
06:00+8вюв3799100 0.0 1022232
09:00+11вюв6992100 0.0 1021479
12:00+14вюв7980100 0.0 1021701
15:00+16вюв91070100 0.0 1019847
18:00+14вюв9147784 0.0 1018728
21:00+12вюв101872100 0.0 1017650